Theta_e
328 324 324 322 309 306 302 302 306 304 305 309 310 309 308 310 307 306 332 342 344 344 345 345 349 350 349 348 348 347 345 343 341 340 339 339 339 340 341 341 343 345 343 344 343 342 339 338 337
323 321 322 316 304 299 300 305 302 306 310 311 310 310 309 310 319 325 334 341 343 344 345 345 347 350 349 348 349 347 345 342 341 339 338 338 338 338 338 339 342 341 342 344 343 342 338 338 336
321 319 316 310 305 300 300 304 306 308 311 310 309 313 313 312 322 329 339 342 343 344 345 346 347 349 349 348 348 347 345 341 340 337 337 336 337 337 337 338 338 342 344 344 342 340 337 335 335
319 317 314 304 301 304 304 305 307 309 308 310 311 308 316 322 326 332 341 343 342 343 345 344 348 350 349 348 347 347 344 341 339 336 335 335 335 336 336 337 339 342 342 342 340 338 335 334 332
318 315 305 303 302 304 306 307 308 307 308 308 311 308 311 322 329 336 341 342 341 342 345 346 346 349 348 348 347 346 344 340 338 335 333 333 333 334 335 336 338 340 339 337 335 333 331 330 329
311 312 302 300 302 304 306 308 308 308 308 309 309 308 312 324 325 334 340 342 341 342 343 345 341 343 346 346 345 345 344 340 337 334 332 331 331 332 334 334 335 336 334 331 329 328 327 327 327
310 306 302 303 301 302 305 309 308 308 307 307 311 306 315 320 325 334 338 340 341 342 342 344 345 342 338 341 342 342 343 340 338 335 334 332 332 332 332 333 333 332 330 328 326 325 325 326 326
310 307 302 303 300 301 307 308 309 309 307 312 314 306 308 318 327 334 336 338 339 340 340 341 342 343 344 344 335 337 339 338 337 333 331 330 330 329 328 328 329 328 327 324 323 323 324 324 324
309 302 299 301 301 302 307 306 307 310 308 309 312 311 317 322 328 332 333 335 337 337 339 340 339 342 342 343 339 333 334 333 332 329 326 325 327 325 325 324 326 325 323 322 322 322 322 321 321
306 302 302 305 305 303 306 306 307 305 306 307 309 312 313 323 326 328 330 330 334 336 339 340 340 340 342 341 342 342 340 337 334 329 327 331 330 329 324 321 323 323 322 320 320 320 321 320 318
304 300 303 302 304 305 305 304 307 305 304 307 307 310 311 321 324 325 328 329 331 336 338 339 342 343 342 342 343 343 342 339 334 329 332 333 329 328 326 322 321 319 317 317 317 318 317 318 316
299 302 302 302 303 303 303 306 304 305 307 310 311 312 312 317 321 323 325 328 330 333 336 339 340 342 342 342 341 341 341 340 335 332 331 328 327 326 324 325 323 323 322 320 318 316 315 313 312
301 302 302 303 302 303 303 303 304 305 309 311 309 309 311 312 319 323 325 329 330 331 334 337 339 339 339 340 340 340 341 338 339 334 330 328 325 323 322 321 323 322 321 319 315 311 311 311 309
304 303 303 304 303 303 301 302 302 305 308 308 308 307 309 310 314 319 323 326 329 332 333 336 335 335 336 336 337 338 340 339 337 332 331 326 326 323 322 320 320 320 321 318 313 308 306 306 303
303 300 302 303 303 302 303 300 300 306 307 306 307 307 309 310 311 314 320 324 329 332 333 333 332 333 334 334 335 337 338 339 335 335 331 329 326 322 322 321 316 318 318 315 308 303 302 300 298
300 300 296 302 302 302 302 296 304 307 307 305 306 307 308 309 310 312 317 323 327 331 331 332 328 329 331 332 334 336 335 331 334 334 333 330 327 324 319 320 319 316 315 307 301 299 299 297 296
300 294 296 298 302 301 300 298 304 305 304 304 307 308 309 309 310 311 313 320 324 328 330 330 326 325 327 330 331 333 332 332 328 331 333 330 328 324 320 319 313 313 311 306 299 297 296 295 294
294 295 296 296 299 299 299 298 303 305 305 305 306 307 308 310 310 312 312 315 322 327 329 328 326 324 326 327 327 327 325 324 327 323 326 330 328 323 321 318 310 311 308 302 296 295 294 293 294
297 296 295 298 300 297 297 298 301 304 304 304 305 306 307 309 312 313 313 313 316 323 325 325 324 323 324 323 321 319 318 317 313 317 317 324 325 322 320 313 308 309 306 299 295 294 292 292 294
297 294 294 298 300 297 297 297 301 303 304 305 305 306 308 309 311 312 312 312 312 315 321 322 322 321 321 321 319 317 316 317 314 308 308 314 316 316 312 307 305 305 303 297 294 293 291 291 293
295 294 294 294 298 299 296 295 298 303 305 306 307 308 309 309 309 311 311 310 311 311 315 317 319 319 318 318 317 315 315 309 305 303 303 304 309 311 308 306 305 303 302 297 294 293 292 289 291
291 298 296 294 293 289 296 288 296 299 301 304 306 307 308 309 310 310 311 309 310 311 313 315 316 316 316 316 315 313 308 305 307 308 303 299 301 304 305 304 305 303 302 297 294 295 294 293 291
294 297 296 295 293 293 293 289 294 299 298 301 304 308 310 312 312 310 310 310 310 311 312 313 313 314 314 314 314 311 308 313 312 308 300 297 296 299 300 300 300 300 300 298 295 294 294 294 293
298 296 295 295 293 286 292 291 292 296 299 302 305 308 309 309 308 307 307 308 307 310 310 312 311 311 313 313 313 311 311 312 306 302 299 295 293 292 294 297 299 299 299 297 296 295 295 295 296
296 293 286 286 285 285 293 292 294 300 302 304 305 308 305 306 306 307 304 303 305 306 307 309 309 308 311 311 311 311 312 313 308 304 299 296 293 291 290 291 294 297 298 298 297 295 294 295 294
293 293 288 284 284 288 289 287 293 302 304 305 306 307 306 306 307 306 306 304 304 304 306 307 307 307 309 309 309 310 311 312 308 307 305 299 297 296 292 290 291 292 294 294 293 293 293 293 294
292 289 296 289 288 285 289 294 299 302 302 303 304 304 305 307 306 305 304 303 303 303 305 305 305 306 307 308 307 308 309 308 307 305 304 304 300 294 290 288 289 290 290 291 291 291 288 291 290
295 298 288 290 284 282 287 291 292 298 299 302 303 304 306 305 303 301 302 302 302 303 304 305 305 305 307 307 306 306 307 306 305 302 300 297 296 290 288 287 286 286 287 289 290 288 288 288 288
292 291 293 293 291 286 284 290 301 301 304 303 304 305 305 304 303 302 301 301 302 303 303 303 304 304 306 305 305 305 303 302 299 295 293 290 288 286 285 285 285 284 285 286 288 286 287 285 286
297 293 293 289 287 290 289 290 302 303 304 305 304 304 304 303 302 302 301 300 300 301 302 303 303 303 305 304 304 302 301 298 296 293 289 288 287 285 284 284 283 283 283 283 284 283 285 284 283
Wind_Speed
11 9 5 6 7 5 2 5 1 5 4 4 2 3 6 6 7 5 6 8 15 13 15 14 11 12 14 13 13 12 12 13 13 13 13 13 14 13 14 13 12 15 15 15 19 20 20 20 20
8 5 6 4 6 5 6 5 5 5 7 3 2 5 5 4 4 8 10 8 14 12 14 14 11 12 13 13 12 12 13 13 13 13 14 13 14 14 14 12 13 14 12 15 20 20 19 19 19
8 6 6 4 4 4 4 3 6 7 6 5 3 3 5 3 3 12 11 11 13 12 13 14 12 13 14 13 13 13 12 13 13 13 14 14 14 14 14 14 14 11 17 20 20 19 18 19 18
4 5 4 8 3 2 4 3 7 10 5 3 2 4 3 4 7 6 10 13 13 12 12 15 13 14 14 13 13 13 14 13 13 13 14 14 14 14 14 15 13 16 19 19 20 19 18 18 17
5 4 7 6 4 2 1 1 7 9 7 7 5 1 0 6 7 7 11 12 13 12 11 14 11 13 13 13 13 14 14 14 14 14 14 14 14 15 15 15 14 18 19 19 19 18 18 18 18
6 4 7 9 6 2 2 5 7 8 6 6 5 5 3 9 10 10 11 13 11 12 10 13 11 11 12 13 13 13 14 14 14 14 14 14 15 15 15 16 16 18 18 18 18 19 19 19 19
8 7 11 7 4 4 5 7 9 9 8 7 1 5 5 11 10 11 12 12 12 12 11 11 13 12 10 11 12 12 14 14 13 13 13 13 13 14 15 15 16 17 18 18 19 19 20 20 19
5 5 12 9 8 9 6 9 4 9 7 6 2 5 5 12 12 11 12 13 9 9 11 12 13 13 12 12 11 12 12 13 12 13 12 12 12 12 12 12 15 17 18 19 20 20 20 19 17
2 6 9 12 8 7 6 10 4 3 4 3 7 3 5 13 13 13 12 13 9 9 12 11 11 12 12 12 12 11 12 12 12 10 13 12 10 12 10 12 15 18 19 20 20 20 20 19 16
7 9 13 3 6 5 8 11 9 7 11 10 10 8 6 12 13 15 15 15 16 15 14 12 11 11 11 9 13 13 12 11 9 8 11 8 10 9 11 11 13 16 17 18 18 16 11 9 8
4 9 2 3 4 3 5 8 5 9 13 12 14 14 13 15 15 16 17 17 17 16 13 14 15 15 14 9 9 6 6 6 8 10 3 3 8 9 8 7 7 9 11 8 10 8 7 9 8
7 4 4 1 2 3 6 3 7 15 15 4 8 3 17 17 17 18 18 18 17 17 17 16 16 13 13 9 9 9 8 8 7 10 9 5 5 6 7 6 8 7 5 8 7 6 9 11 12
8 3 3 2 3 5 2 8 9 15 14 10 3 4 13 16 18 16 17 16 16 18 17 17 14 14 12 11 9 8 7 7 9 8 9 7 7 7 6 5 5 6 7 7 8 8 8 9 11
2 4 5 5 7 5 6 11 1 10 11 16 14 14 13 16 17 17 17 18 18 17 17 17 16 15 15 12 11 8 8 8 8 9 10 8 7 7 7 7 6 5 7 7 8 8 8 8 9
1 6 7 10 8 4 4 12 17 17 8 10 15 16 15 16 16 18 18 18 19 16 17 17 17 15 15 14 12 9 7 9 8 9 13 13 10 9 9 6 7 7 8 10 8 10 9 8 8
5 4 8 6 8 4 6 14 4 3 12 15 16 15 15 17 18 18 18 17 17 17 18 17 12 15 15 13 10 8 9 5 6 8 10 14 13 14 9 7 7 6 8 7 7 8 8 9 8
8 10 9 6 8 4 12 12 3 2 6 13 13 13 14 17 17 18 18 18 18 19 19 18 17 17 16 13 10 10 9 8 5 5 7 15 14 14 10 8 7 9 8 8 10 6 7 8 9
11 10 10 9 6 7 11 20 17 11 10 15 17 17 17 16 17 17 18 17 18 18 18 18 16 17 16 10 9 7 6 4 6 4 4 12 11 14 11 9 11 9 9 9 8 8 5 7 9
7 9 12 12 4 4 13 20 21 18 18 22 21 20 21 21 17 15 14 16 15 17 18 19 18 18 12 10 10 9 9 7 4 4 4 6 10 12 12 9 11 10 10 10 10 10 11 9 11
11 15 17 15 10 3 15 20 24 21 20 23 23 22 22 20 18 15 14 14 17 19 19 18 18 18 15 10 9 7 8 7 5 3 3 4 9 11 11 12 12 12 10 11 13 13 9 7 9
15 17 15 16 11 13 12 17 21 19 17 21 23 24 22 20 18 15 16 17 15 17 18 18 18 17 16 14 10 8 6 4 5 5 4 2 5 10 10 11 11 11 12 11 13 14 12 9 9
16 14 13 13 6 9 1 12 15 18 18 16 17 19 18 15 14 14 12 17 17 16 15 17 17 17 16 16 12 14 10 8 8 7 4 4 3 5 9 10 10 13 8 14 12 10 10 9 10
3 2 5 5 8 13 15 12 7 14 15 16 19 15 13 11 9 10 11 10 12 11 12 13 15 16 16 15 14 11 12 8 7 7 9 6 4 5 8 9 11 11 9 10 15 14 13 7 7
12 7 4 2 4 11 15 17 13 14 19 18 15 10 4 5 5 4 2 4 8 8 10 11 15 15 15 15 15 15 14 10 8 9 7 6 5 4 6 9 10 9 9 12 12 12 10 9 7
11 7 4 6 6 12 3 11 18 5 9 12 13 4 4 6 5 5 7 7 8 10 11 11 14 15 14 14 14 14 13 13 13 11 7 8 6 4 6 8 9 10 11 12 12 12 9 7 5
14 13 8 7 8 13 5 12 8 7 8 12 15 13 5 9 8 8 7 7 9 9 11 12 13 14 15 15 15 13 13 7 8 11 8 7 6 7 10 8 7 6 8 8 8 6 5 5 5
8 12 12 13 2 6 12 20 22 12 12 13 14 13 11 9 4 5 5 6 8 9 11 12 13 14 15 15 13 13 12 11 10 10 7 8 9 7 10 9 9 9 8 8 10 7 7 7 6
10 3 7 7 7 11 16 18 14 4 13 14 16 15 11 2 2 3 4 6 6 8 10 11 12 14 13 14 12 11 12 11 9 8 9 8 7 9 11 11 10 9 8 11 11 8 8 10 7
11 12 9 9 11 8 16 14 13 5 9 13 10 9 7 5 5 6 5 5 6 6 8 10 11 13 12 12 12 12 11 12 11 10 9 10 9 9 9 11 11 10 10 9 10 9 11 12 11
16 21 23 10 7 9 11 23 3 3 2 7 10 9 7 3 5 5 6 6 7 8 9 10 10 11 11 11 12 11 11 11 11 11 10 10 11 10 11 10 10 10 10 8 8 10 11 12 14
Wind_Direction
268 246 263 256 241 243 125 134 38 139 161 77 309 250 339 7 353 22 151 113 127 140 134 153 143 140 137 130 124 116 113 108 106 102 97 93 91 88 84 77 76 85 86 90 88 83 80 78 74
283 268 235 268 262 245 102 119 183 161 80 126 152 226 252 76 69 116 153 148 143 143 143 147 141 139 139 132 125 119 114 110 109 104 99 98 95 95 94 89 83 85 104 101 94 88 83 79 74
254 254 265 260 284 324 32 181 140 112 128 175 200 263 343 57 116 147 103 160 148 147 152 129 142 145 145 140 136 124 120 115 111 106 103 99 98 97 96 90 87 86 91 96 93 88 84 79 76
229 201 226 256 255 18 335 138 130 145 143 179 292 221 140 37 145 122 147 158 154 154 150 135 146 150 149 147 140 132 125 121 114 110 107 104 101 98 94 91 85 82 87 88 87 84 83 80 75
223 249 245 242 261 304 176 81 169 174 153 163 188 170 95 158 111 153 157 162 162 159 140 153 149 149 148 149 147 135 129 124 119 117 112 109 107 105 101 98 88 84 84 84 87 87 83 78 76
219 272 238 235 203 168 200 183 197 197 164 125 203 243 119 141 165 164 169 178 162 163 145 152 155 149 148 152 151 141 132 130 126 121 119 116 113 109 107 104 100 94 98 97 93 88 84 80 75
262 224 248 285 273 230 219 180 201 201 184 195 32 238 91 172 176 168 175 186 157 158 166 159 168 163 149 150 147 143 137 134 131 127 120 112 108 106 105 104 105 104 102 98 95 93 88 83 80
275 261 250 251 265 256 152 181 234 218 208 89 214 238 197 170 164 174 177 178 167 165 180 175 171 171 169 162 150 148 140 137 132 123 111 102 97 97 97 102 107 108 105 101 98 96 91 85 71
271 247 242 246 249 256 143 201 189 9 224 204 185 275 73 136 163 178 181 175 188 182 185 181 178 178 175 167 162 152 145 137 130 129 128 145 129 127 132 95 109 110 109 105 103 101 98 87 65
227 231 248 308 262 266 184 217 177 213 208 216 216 200 154 157 178 185 189 190 191 191 193 178 183 184 177 166 162 172 160 160 153 154 167 141 140 117 113 100 102 107 108 109 107 109 127 109 95
183 240 274 223 251 273 222 220 210 230 238 224 227 207 181 182 191 198 199 200 199 195 193 191 188 186 179 175 170 173 170 160 161 159 148 81 118 128 129 128 122 124 129 123 124 119 89 90 89
236 248 261 25 183 212 222 281 228 237 242 2 262 270 174 194 197 203 205 205 197 198 196 198 194 190 186 176 181 177 170 169 167 174 162 136 139 137 148 153 149 150 140 119 105 96 100 97 92
231 204 213 203 208 246 301 240 250 260 245 241 207 202 200 206 209 211 213 210 202 201 199 193 193 197 181 187 190 185 166 177 175 160 168 161 153 153 148 158 150 147 141 124 114 108 101 100 98
59 237 239 234 233 230 246 255 201 247 242 235 229 227 222 218 216 216 213 212 209 201 199 193 196 200 189 193 196 197 167 175 175 171 176 165 163 150 158 147 161 142 143 130 123 122 113 100 100
216 259 225 232 224 247 239 253 234 251 218 245 240 235 236 230 224 221 214 215 209 204 202 195 195 198 199 201 195 189 185 179 176 177 178 174 167 165 159 158 152 153 137 131 116 119 122 119 107
235 239 249 116 171 176 215 260 294 325 228 244 249 248 238 234 229 226 223 211 215 209 206 195 191 194 198 201 196 196 173 177 175 187 180 182 177 169 150 171 157 141 134 131 132 137 133 130 122
206 259 212 242 192 156 211 275 23 47 244 258 259 255 250 245 231 225 223 217 209 206 202 197 196 198 197 200 195 196 194 192 183 188 191 187 178 174 160 163 139 146 147 137 126 144 138 134 122
246 225 241 257 143 223 233 260 270 253 250 263 267 267 260 246 238 226 218 214 212 208 203 199 194 200 195 190 194 189 190 220 194 191 199 186 182 173 157 155 146 154 149 150 133 141 134 134 129
296 289 278 281 126 257 261 271 274 271 267 264 262 258 258 253 242 225 210 209 209 211 207 203 197 199 190 188 188 196 203 194 197 191 182 187 176 175 164 153 150 156 163 157 149 139 142 142 133
247 264 267 279 295 233 276 273 276 270 257 257 260 259 256 257 249 223 205 199 206 208 204 203 202 197 194 189 189 196 197 203 195 168 170 187 164 166 163 157 159 155 149 156 156 149 144 147 171
244 254 264 270 302 247 278 275 255 257 251 255 257 260 260 259 260 241 194 200 209 215 208 206 202 198 193 193 187 186 173 151 183 194 190 193 165 165 161 167 162 159 158 162 166 158 163 163 200
260 249 248 264 278 282 48 288 292 291 267 244 251 252 254 251 244 243 241 199 212 215 211 204 203 201 196 194 191 188 194 195 203 190 156 137 136 158 154 158 177 161 186 162 168 170 162 167 185
247 78 210 229 250 293 255 261 267 252 249 256 258 255 251 247 230 230 218 228 218 208 208 202 201 202 194 196 195 187 207 206 173 168 155 162 160 158 164 162 162 165 165 169 171 173 167 174 171
137 108 108 193 262 260 261 244 266 239 226 254 264 262 315 175 194 190 173 216 210 193 196 196 202 203 197 199 197 201 204 188 171 172 167 166 165 163 165 168 167 168 167 175 176 183 184 166 181
203 183 233 231 197 254 352 261 249 270 296 264 276 299 151 171 213 232 191 193 195 188 193 194 201 203 198 200 202 208 208 196 190 183 171 165 169 181 179 159 171 182 181 177 175 181 173 173 166
196 203 211 233 245 273 105 236 258 224 286 258 250 248 262 259 240 232 214 186 182 185 188 192 196 204 199 198 207 207 210 200 198 193 172 174 181 185 177 175 173 172 162 165 163 162 148 155 158
168 213 252 267 299 282 254 262 271 213 229 238 251 260 261 257 239 227 202 199 178 184 191 195 197 202 198 197 204 204 204 196 198 187 172 179 183 162 161 164 170 167 155 156 167 160 151 155 153
236 245 201 213 238 243 256 257 256 227 237 241 241 243 249 220 169 157 187 186 176 188 184 195 201 202 202 195 200 201 199 196 199 184 181 170 168 151 160 161 150 154 162 170 171 151 151 155 154
190 221 226 230 224 238 266 258 257 283 238 237 241 220 179 165 164 156 178 176 178 196 194 194 201 201 201 199 199 196 192 192 183 181 169 162 155 157 160 161 155 154 166 165 166 156 157 159 149
229 224 210 214 209 241 264 270 141 341 309 217 194 176 149 159 157 162 170 177 188 198 202 201 202 205 202 202 200 195 197 191 186 183 166 158 163 162 159 156 155 153 156 150 159 156 164 168 156